Home   Weather   Faridkot   Past weeks

Flag for India Past Weather in Faridkot, Punjab, India — Yesterday and Last 2 Weeks

Now
91 °F

Haze.


Feels Like: 89 °F
Forecast: 71 / 98 °F
Wind: 15 mph from North

Location: Lahore Airport

Current Time: Apr 29, 2017 at 7:22:39 pm

Latest Report: Apr 29, 2017 at 6:25 pm


Visibility: 2 mi

Pressure: 29.71 "Hg

Humidity: 26%

Dew Point: 52 °F

Location of FaridkotLocation

Past Weather in Faridkot — Graph

°F

Faridkot Temperature Yesterday

Maximum temperature yesterday: 102 °F (at 2:25 pm)
Minimum temperature yesterday: 73 °F (at 5:55 am)
Average temperature yesterday: 88 °F

High & Low Weather Summary for the Past Weeks

 TemperatureHumidityPressure
High113 °F (Apr 18, 2:25 pm)100% (Apr 18, 7:00 am)29.83 "Hg (Apr 18, 7:00 am)
Low66 °F (Apr 24, 4:55 am)8% (Apr 18, 3:55 pm)29.45 "Hg (Apr 20, 4:25 pm)
Average89 °F36%29.68 "Hg
* Reported Apr 14 4:30 pm — Apr 29 5:25 pm, Faridkot, Weather by CustomWeather, © 2017

Note: Actual official high and low records may vary slightly from our data, if they occured in-between our weather recording intervals... More about our weather records

Advertising

Faridkot Weather History for the Previous 24 Hours

Scroll right to see more
 ConditionsComfort  
Time TempWeatherWind HumidityBarometerVisibility
5:25 pm
Sat, Apr 29
93 °FDuststorm.17 mph23%29.68 "Hg2 mi
4:25 pm93 °FDuststorm.17 mph23%29.68 "Hg2 mi
2:00 pm91 °FDuststorm.22 mph26%29.77 "Hg2 mi
12:55 pm88 °FDuststorm.23 mph27%29.80 "Hg2 mi
12:29 pm88 °FDuststorm.23 mph27%29.80 "Hg2 mi
11:55 am88 °FDuststorm.26 mph29%29.80 "Hg2 mi
11:25 am88 °FDuststorm.26 mph29%29.80 "Hg2 mi
11:00 am88 °FDuststorm.24 mph29%29.80 "Hg2 mi
9:25 am86 °FHaze.23 mph33%29.80 "Hg3 mi
8:25 am81 °FHaze.23 mph39%29.77 "Hg3 mi
7:30 am79 °FScattered clouds.17 mph42%29.77 "Hg3 mi
6:55 am79 °FScattered clouds.16 mph45%29.74 "Hg3 mi
6:25 am77 °FScattered clouds.15 mph44%29.74 "Hg2 mi
5:55 am75 °FScattered clouds.13 mph47%29.74 "Hg2 mi
5:25 am77 °FPassing clouds.10 mph47%29.74 "Hg2 mi
4:55 am77 °FPassing clouds.10 mph47%29.74 "Hg2 mi
3:55 am79 °FHaze.No wind45%29.68 "Hg2 mi
3:25 am79 °FHaze.No wind45%29.68 "Hg2 mi
2:55 am81 °FHaze.No wind42%29.68 "Hg2 mi
2:25 am81 °FHaze.3 mph42%29.68 "Hg2 mi
1:55 am82 °FHaze.3 mph40%29.68 "Hg2 mi
1:25 am82 °FHaze.No wind40%29.68 "Hg2 mi
12:25 am84 °FHaze.No wind35%29.68 "Hg2 mi
11:25 pm
Fri, Apr 28
86 °FHaze.7 mph31%29.68 "Hg2 mi
10:55 pm88 °FHaze.7 mph29%29.68 "Hg2 mi
10:25 pm90 °FHaze.7 mph27%29.68 "Hg2 mi
9:55 pm90 °FHaze.6 mph27%29.68 "Hg2 mi
9:25 pm91 °FHaze.6 mph26%29.68 "Hg2 mi
8:55 pm93 °FHaze.7 mph30%29.68 "Hg2 mi
8:25 pm95 °FHaze.3 mph28%29.68 "Hg2 mi
7:55 pm95 °FHaze.6 mph30%29.65 "Hg2 mi
7:25 pm95 °FHaze.5 mph30%29.65 "Hg3 mi
Weather by CustomWeather, © 2017

See weather overviewHow to use our weather pages